Showing default

GJZ 01, 62290

Orbit data source: Space-Track

GJZ 01, 62290 is a payload satellite owned by CASC (CN) in LEO that was launched on Thu, 12 Dec 2024 UTC via a CHANG ZHENG 2D/YZ-3 launch vehicle from the Jiuquan Satellite Launch Center, China (JSC). Payloads include a variety of satellites, spacecraft, and rockets equipped with specific instruments for various scientific and technological missions. These include communications satellites like Starlink; space stations such as the ISS; scientific satellites like the Hubble; Earth observation satellites from companies like Planet Labs, Umbra, and HawkEye 360; GPS; miniature CubeSats for education and research; and military/defense satellites.

Loading next visibility...
GJZ 01 details
Identifier
62290, 2024-238A
Orbit
LEO
Last TLE update21 hours ago
Origin
Flag of CNCASC (CN / PRC)
ManufacturerHITSAT
MissionOperational spacecraft
Bus & MotorHARBFLAT, Unknown motor
Mass~150 kg wet, ~150 kg dry
Launch date (UTC)
2024-12-12 (2 weeks ago)
Launch vehicle
CHANG ZHENG 2D/YZ-3
Launch site
Jiuquan Satellite Launch Center, China (JSC)
Object type
Payload
Rocket body
Debris
Shape & HBRUnknown
Radar Cross SectionLarge (>1 m²)

Expand to show TLE details & history

TLE from 21 hours ago
0 GJZ 01
1 62290U 24238A   24360.59056661  .00000066  00000-0  37249-3 0  9991
2 62290  59.9108 104.2153 0012221 295.1060  64.8656 13.28533770  1779
Epoch: 2024-12-25T14:10Z
Definitive object data (Epoch: 2024-12-25T14:10:24.955Z)
Latitude-0.00003°
Longitude157.02918°
Altitude1,149.85 km
Speed7.281 km/s
True Right ascension06h 56m 51s
True Declination0° 00' 00"
Sunlit
Object was in full shadow at TLE epoch
Visualization TLE readout
Latitude-37.59496°
Longitude0.93741°
Altitude1,162.158 km
Speed7.273 km/s
Apparent Right ascension21h 25m 56s
Apparent Declination-39° 25' 53"
Sunlit
Object is in daylight
Visualization observer readout
Local Sidereal Time10:31:29
Azimuth93.067° ESE
Elevation-77.395°
Doppler factor1
Orbital elements
Apogee altitude1,160.786 km
Perigee altitude1,142.382 km
Semi-major axis7,529.721 km
Eccentricity0.0012221
Inclination59.9108°
RAAN104.2153°
Arg. of periapsis295.106°
True anomaly64.99246°
Mean anomaly64.8656°
Eccentric anomaly64.92902°
Mean motion3.32181 °/min
BSTAR0.00037249
Orbital period108.37 mins
Loading maneuver chart data...
Loading historical data...
Loading historical data...
Loading historical data...
Loading historical data...
Loading historical data...
Loading historical data...
Loading historical data...
Other satellites on launch #238 in the year 2024 (2024-12-12 UTC)

GJZ 01 Visibility forecast

Observer location: undefined°, undefined

Span
Click to sort rows by Start time (UTC) header in descending order
Start Az.
Max El. time (UTC)
Max El. Az.
Max El.
End time (UTC)
End Az.
9 mins2024-12-26 12:09:10.963Z303.673° NW2024-12-26 12:13:10.963Z338.825° N17.601°2024-12-26 12:18:10.963Z23.379° NE
7 mins2024-12-26 14:06:10.963Z343.718° N2024-12-26 14:09:10.963Z10.89° NNE15.911°2024-12-26 14:13:10.963Z45.658° ENE
11 mins2024-12-26 15:59:10.963Z340.061° N2024-12-26 16:04:10.963Z39.874° NE30.69°2024-12-26 16:10:10.963Z100.306° ESE
12 mins2024-12-26 17:51:10.963Z312.007° NW2024-12-26 17:57:10.963Z225.215° WSW41.184°2024-12-26 18:03:10.963Z160.211° S
11 mins2024-12-27 07:50:10.963Z171.203° S2024-12-27 07:55:10.963Z115.751° SE29.057°2024-12-27 08:01:10.963Z57.002° ENE
13 mins2024-12-27 09:41:10.963Z239.326° WSW2024-12-27 09:47:10.963Z311.038° NW39.998°2024-12-27 09:54:10.963Z32.933° NE
|